Weather History for Kirksville, MO

Change the Weather History Date:

Tuesday, June 25, 2013

  Actual Average Record
Temperature  
Mean Temperature 81 °F 73 °F  
Max Temperature 87 °F 83 °F 102 °F (1988)
Min Temperature 74 °F 63 °F 49 °F (1958)
Degree Days  
Heating Degree Days 0 0  
Month to date heating degree days 36 12  
Since 1 June heating degree days 36 12  
Since 1 July heating degree days 6071 5852  
Cooling Degree Days 16 8  
Month to date cooling degree days 164 149  
Year to date cooling degree days 232 211  
Since 1 June cooling degree days 164 149  
Growing Degree Days 30 (Base 50)    
Moisture  
Dew Point 71 °F    
Average Humidity 77    
Maximum Humidity 88    
Minimum Humidity 65    
Precipitation  
Precipitation 0.00 in 0.13 in 2.70 in (1981)
Month to date precipitation 2.59 4.24  
Year to date precipitation 27.06 18.39  
Sea Level Pressure  
Sea Level Pressure 29.84 in    
Wind  
Wind Speed 9 mph (South)    
Max Wind Speed 14 mph    
Max Gust Speed 20 mph    
Visibility 10 miles    
Events      
T = Trace of Precipitation, MM = Missing Value Source: NWS Daily Summary

Daily Weather History Graph

Daily Weather History Graph

Search for Another Location

Airport:

Trip Planner

Search our weather history database for the weather conditions in past years. The results will help you decide how hot, cold, wet, or windy it might be!

Date:

Astronomy

Jun. 25, 2013 Rise Set
Actual Time 5:42 AM CDT 8:43 PM CDT
Civil Twilight 5:09 AM CDT 9:16 PM CDT
Nautical Twilight 4:27 AM CDT 9:58 PM CDT
Astronomical Twilight 3:38 AM CDT 10:46 PM CDT
Moon 10:29 PM CDT 8:23 AM CDT
Length of Visible Light 16h 06m
Length of Day
15h 01m
Waning Gibbous, 92% of the Moon is Illuminated
Jun 25
Waning Gibbous
Jun 29
Last Quarter
Jul 8
New
Jul 15
First Quarter
Jul 22
Full

Hourly Weather History & Observations

Time (CDT) Temp. Heat Index Dew Point Humidity Pressure Visibility Wind Dir Wind Speed Gust Speed Precip Events Conditions
12:55 AM 75.0 °F - 70.0 °F 84% 29.87 in 10.0 mi SSE 8.1 mph - N/A   Clear
1:55 AM 75.0 °F - 70.0 °F 84% 29.87 in 10.0 mi South 6.9 mph - N/A   Clear
2:55 AM 75.0 °F - 70.0 °F 84% 29.86 in 10.0 mi SSW 8.1 mph - N/A   Clear
3:55 AM 75.0 °F - 69.1 °F 82% 29.85 in 10.0 mi South 8.1 mph - N/A   Clear
4:55 AM 73.9 °F - 68.0 °F 82% 29.85 in 10.0 mi SSW 10.4 mph - N/A   Clear
5:55 AM 73.9 °F - 68.0 °F 82% 29.85 in 10.0 mi South 8.1 mph - N/A   Clear
6:55 AM 75.0 °F - 69.1 °F 82% 29.86 in 9.0 mi South 9.2 mph - N/A   Clear
7:55 AM 75.0 °F - 69.1 °F 82% 29.87 in 9.0 mi SSW 8.1 mph - N/A   Clear
8:55 AM 75.9 °F - 70.0 °F 82% 29.87 in 9.0 mi SSW 9.2 mph - N/A   Clear
9:55 AM 75.9 °F - 70.0 °F 82% 29.89 in 10.0 mi SSW 11.5 mph - N/A   Clear
10:55 AM 78.1 °F - 71.1 °F 79% 29.90 in 10.0 mi SW 9.2 mph - N/A   Clear
11:55 AM 79.0 °F - 72.0 °F 79% 29.88 in 10.0 mi SSW 6.9 mph - N/A   Clear
12:55 PM 81.0 °F 85.8 °F 73.0 °F 77% 29.88 in 10.0 mi South 11.5 mph - N/A   Partly Cloudy
1:55 PM 81.0 °F 85.8 °F 73.0 °F 77% 29.86 in 10.0 mi SSW 9.2 mph 16.1 mph N/A   Clear
2:55 PM 82.9 °F 88.8 °F 73.0 °F 72% 29.83 in 10.0 mi SSW 5.8 mph - N/A   Partly Cloudy
3:55 PM 84.0 °F 90.2 °F 73.0 °F 69% 29.81 in 10.0 mi SSW 8.1 mph - N/A   Clear
4:55 PM 86.0 °F 95.1 °F 75.0 °F 70% 29.79 in 10.0 mi South 8.1 mph - N/A   Clear
5:55 PM 86.0 °F 93.8 °F 73.9 °F 67% 29.78 in 10.0 mi South 12.7 mph - N/A   Clear
6:55 PM 84.0 °F 90.2 °F 73.0 °F 69% 29.78 in 10.0 mi South 9.2 mph 17.3 mph N/A   Clear
7:55 PM 80.1 °F 83.8 °F 72.0 °F 76% 29.78 in 10.0 mi SE 6.9 mph - N/A   Clear
8:55 PM 75.9 °F - 72.0 °F 87% 29.79 in 10.0 mi South 4.6 mph - N/A   Clear
9:55 PM 77.0 °F - 73.0 °F 88% 29.80 in 10.0 mi SSE 8.1 mph - N/A   Partly Cloudy
10:55 PM 77.0 °F - 72.0 °F 84% 29.81 in 10.0 mi South 8.1 mph - N/A   Mostly Cloudy
11:55 PM 78.1 °F - 70.0 °F 76% 29.79 in 10.0 mi South 8.1 mph - N/A   Scattered Clouds